www.pogodaiklimat.ru

Погода и климат >> Архив погоды >> Мексика >> Zamora


ПОГОДА в Zamora

  • Прогноз погоды в Zamora
  • Монитор погоды в Zamora
  • Климат города

АРХИВ ПОГОДЫ в Zamora

Время (UTC), дата Ветер
(напр.,м/с)
 
Видим.   Явления Облачность Т
(С)
Тd
(С)
f
(%)
Тe
(С)
Тes
(С)
Комфортность P
(гПа)
Po
(гПа)
Тmin
(С)
Tmax
(С)
R
(мм)
R24
(мм)
S
(см)
15 9.07 В 1 15 км мгла {туман} 10/10 1080 м
[Sc diur, vesp]
+18.6 +15.9 84 +21 +21 комфорт 1018.2 850.5
18 9.07 С 2 18 км мгла {туман} 8/8 1020 м
[Sc diur, vesp]
+26.2 +16.1 54 +30 +34 душно 1016.1 849.4 +15.5 +27.5
21 9.07 ЮЗ 2 15 км {морось} 8/8 1020 м
[Sc diur, vesp]
+24.8 +17.1 62 +29 +32 душно 1013.5 848.0 4
00 10.07 З 2 18 км {морось} 5/5 1000 м
[Sc diur, vesp]
+24.2 +15.8 59 +27 +28 жарко 1010.9 846.8 4
03 10.07 В 2 10 км слабая морось 8/8 1000 м
[Sc diur, vesp]
+20.2 +16.1 77 +24 +24 комфорт 1012.3 848.5 0.0
06 10.07 СВ 3 10 км {морось} 9/9 600 м
[Sc diur, vesp]
+18.2 +15.2 83 +19 +19 1014.8 850.0 0.5
09 10.07 В 1 10 км {морось} 9/9 1000 м
[Sc diur, vesp]
+17.4 +15.3 87 +18 +18 1014.4 849.0 1
12 10.07 В 1 10 км {морось} 9/9 600 м
[Sc diur, vesp]
+17.0 +14.7 86 +18 +18 1015.6 849.0 1
15 10.07 ЮВ 1 18 км мгла {туман} 8/8 1170 м
[Sc diur, vesp]
+19.0 +15.4 80 +21 +23 комфорт 1017.3 849.9
18 10.07 Ю 2 18 км мгла {туман} 8/8 1200 м
[Sc diur, vesp]
+24.0 +15.9 61 +27 +32 жарко 1016.9 850.2 +16.2 +24.2
21 10.07 З 3 18 км мгла {туман} 8/8 1050 м
[Sc diur, vesp]
+26.6 +15.3 50 +29 +32 жарко 1011.9 847.3
00 11.07 Ю 1 18 км {морось} 9/9 1000 м
[Sc diur, vesp]
+20.4 +16.0 76 +24 +25 комфорт 1011.4 847.6 0.0
03 11.07 В 1 10 км 9/9 1440 м
[Sc diur, vesp]
+18.4 +15.7 84 +20 +20 1012.1 848.2
06 11.07 ЮВ 1 10 км 9/9 1000 м
[Sc diur, vesp]
+17.6 +15.2 86 +19 +19 1013.4 848.6 +16.2 +28.6
09 11.07 ЮВ 1 10 км 9/9 1440 м
[St Ac lent Cs]
+16.4 +14.9 91 +17 +17 1014.6 848.3
15 11.07 СВ 1 18 км мгла {туман} 6/6 1140 м
[Sc diur, vesp]
+19.2 +16.3 83 +22 +26 комфорт 1016.5 849.0
18 11.07 ЮВ 2 18 км мгла {туман} 5/5 1200 м
[Sc diur, vesp]
+25.2 +15.9 56 +28 +39 жарко 1015.0 848.6 +16.0 +25.6
21 11.07 Ю 3 18 км мгла {туман} 9/9 1140 м
[Sc diur, vesp]
+21.8 +14.7 64 +25 +26 комфорт 1012.5 847.5
00 12.07 В 1 18 км {ливн. осадки, дождь} 9/9 1000 м
[Sc diur, vesp]
+19.0 +16.1 83 +21 +22 комфорт 1010.8 846.3 16
03 12.07 С 1 10 км 9/9 1200 м
[Sc diur, vesp]
+17.8 +16.3 91 +19 +19 1011.5 846.9
06 12.07 С 1 10 км 9/9 600 м
[Sc diur, vesp]
+16.2 +14.4 89 +17 +17 1014.5 848.4 +16.0 +28.4
09 12.07 З 1 10 км 6/6 1020 м
[Sc diur, vesp]
+14.8 +13.6 93 +15 +15 1015.0 847.6
12 12.07 В 1 10 км 8/8 1200 м
[Sc diur, vesp]
+14.0 +13.7 98 +14 +14 1015.9 847.8 +13.0 +28.4
15 12.07 З 1 17 км мгла 9/9 1000 м
[Sc diur, vesp]
+19.0 +14.8 77 +21 +22 комфорт 1017.9 846.4
21 12.07 С 3 18 км мгла 8/8 1000 м
[Sc diur, vesp]
+28.2 +13.7 41 +30 +33 жарко 1014.0 848.8
00 13.07 З 3 18 км слабая морось 10/10 600 м
[Sc diur, vesp]
+18.6 +16.0 85 +20 +20 1010.4 846.7 2
03 13.07 В 1 10 км 3/3 1140 м
[Sc diur, vesp]
+17.0 +15.5 91 +18 +18 1011.9 848.0
06 13.07 ЮВ 1 10 км 9/9 1000 м
[Sc diur, vesp]
+17.0 +15.8 93 +18 +18 1014.1 848.8 +13.6 +30.2
09 13.07 С 1 10 км 9/9 1170 м
[Sc diur, vesp]
+16.0 +15.1 94 +17 +17 1016.0 848.9
15 13.07 ЮЗ 1 15 км мгла {туман} 4/4 600 м
[Sc diur, vesp]
+21.4 +14.5 65 +24 +30 комфорт 1017.7 849.7
18 13.07 З 1 17 км 3/3 480 м
[Cu med, cong]
+25.6 +8.2 33 +26 +43 жарко 1016.0 849.2 +14.0 +26.0
21 13.07 В 1 16 км мгла {туман} 9/9 1000 м
[Sc diur, vesp]
+27.4 +14.5 45 +30 +32 жарко 1012.3 847.5
00 14.07 С 2 17 км 6/6 600 м
[Sc diur, vesp]
+24.6 +17.2 63 +28 +29 душно 1009.0 845.9 +14.0 +28.8
03 14.07 Ю 2 10 км 8/8 1020 м
[Sc diur, vesp]
+21.4 +15.8 70 +25 +25 комфорт 1010.3 847.6
06 14.07 З 1 10 км 9/9 1000 м
[Sc diur, vesp]
+18.2 +16.4 89 +20 +20 1012.8 849.1 +14.0 +28.8
09 14.07 СЗ 1 10 км 8/8 1140 м
[Sc diur, vesp]
+16.8 +15.9 94 +18 +18 1013.3 848.2
12 14.07 В 1 10 км 8/8 1020 м
[Sc diur, vesp]
+15.6 +14.7 94 +16 +16 1015.2 848.6 +14.0 +28.8
15 14.07 В 1 20 км 8/8 1440 м
[Sc diur, vesp]
+23.0 +13.7 56 +26 +28 жарко 1017.3 850.0
18 14.07 ЮВ 1 18 км мгла {туман} 6/6 1440 м
[Sc diur, vesp]
+27.4 +12.6 40 +29 +39 жарко 1013.7 848.0 +12.8 +28.4
21 14.07 20 км н/о +29.6 +12.9 36 +31 +38 жарко 1011.3 847.4
00 15.07 З 2 20 км 8/8 1000 м
[Sc diur, vesp]
+28.0 +10.7 34 +29 +29 жарко 1007.2 845.5 +12.8 +31.0
03 15.07 З 2 10 км ливневой дождь 9/9 1200 м
[Sc diur, vesp]
+19.4 +17.7 90 +22 +22 комфорт 1010.2 848.2 10
06 15.07 ЮЗ 1 10 км {ливн. осадки, дождь} 5/5 1000 м
[Sc diur, vesp]
+17.8 +16.7 93 +19 +19 1012.6 849.2 12
09 15.07 В 1 10 км 5/5 1080 м
[Sc diur, vesp]
+16.6 +15.7 94 +17 +17 1013.3 848.3
12 15.07 Ю 1 10 км 3/3 1140 м
[Sc diur, vesp]
+15.4 +14.5 94 +16 +16 1015.3 848.4 +14.8 +31.0
15 15.07 В 1 18 км мгла {туман} 6/6 1080 м
[Sc diur, vesp]
+18.4 +15.4 83 +20 +24 1017.4 849.6
18 15.07 ЮЗ 1 18 км мгла {туман} 5/5 1020 м
[Sc diur, vesp]
+25.6 +15.7 54 +29 +41 душно 1016.1 849.2 +14.5 +27.0
21 15.07 СВ 2 18 км 5/5 630 м
[Cu med, cong]
+27.4 +15.2 47 +30 +38 жарко 1012.2 847.3
00 16.07 Ю 3 18 км 9/9 1000 м
[Sc diur, vesp]
+24.4 +16.0 59 +28 +28 душно 1009.8 846.4 +14.5 +29.8
03 16.07 ЮВ 1 10 км 10/10 1020 м
[Sc diur, vesp]
+21.6 +16.7 74 +26 +26 душно 1010.6 847.7
06 16.07 С 1 10 км 8/8 1000 м
[Sc diur, vesp]
+18.8 +17.1 90 +21 +21 комфорт 1012.0 848.4 +14.5 +29.8
09 16.07 В 1 10 км 10/10 1020 м
[Sc diur, vesp]
+17.8 +16.6 93 +19 +19 1013.2 848.2

 

Местоположение метеостанции Zamora (Мексика): широта 19.98 долгота -102.30 высота над уровнем моря 1562 м.

В архиве по умолчанию представлена погода в Zamora за последнюю неделю. Архивные данные за месяц целиком и за предыдущие месяцы, начиная с января 2011 года, Вы можете получить, выбрав интересующий диапазон дат из раскрывающегося списка и нажав кнопку "Ввод!".


*Определитесь, кто Вы:
робот инопланетянин человек

Внимание! Время в таблицах - всемирное. Для получения местного времени необходимо прибавить поправку, которая в Zamora равна -6 ч.

Смотрите также архив погоды в соседних городах и на ближайших метеорологических станциях:

Погода в Ciudad Guzman (Мексика) (119 км)
Погода в Morelia (Мексика) (129 км)
Погода в Guadalajara (Мексика) (129 км)
Погода в Colima (Мексика) (148 км)
Погода в Lagos De Moreno (Мексика) (157 км)
Погода в Guanajuato (Мексика) (161 км)
Погода в Queretaro (Мексика) (209 км)
Погода в Aguascalientes (Мексика) (210 км)
Погода в Manzanillo (Мексика) (234 км)
Погода в Colotlan (Мексика) (256 км)

Пояснения к столбцам:

Ветер - указаны скорость ветра в м/с - средняя за 10 мин, порывы в срок и между сроками (в фигурных скобках) и направление, откуда дует ветер: С - северный, СВ - северо-восточный, В - восточный, ЮВ - юго-восточный, Ю - южный, ЮЗ - юго-западный, З - западный, СЗ - северо-западный.
Видимость - горизонтальная дальность видимости в метрах или километрах. При видимости от 1 до 10 км при отсутствии осадков обычно наблюдается дымка, при ухудшении видимости до 1 км и менее - туман. В сухую погоду видимость может ухудшаться дымом, пылью или мглою.
Явления - указаны атмосферные явления, наблюдавшиеся в срок или в последний час перед сроком; фигурными скобками обозначены явления, наблюдавшиеся между сроками (за 1-3 часа до срока); квадратными скобками обозначены град или гололедные отложения с указанием их диаметра в мм.
Облачность - указаны через наклонную черту общая и нижняя облачность в баллах и высота нижней границы облаков в метрах; квадратными скобками обозначены формы облаков: Ci - перистые, Cs - перисто-слоистые, Cc - перисто-кучевые, Ac - высококучевые, As - высокослоистые, Sc - слоисто-кучевые, Ns - слоисто-дождевые, Cu - кучевые, Cb - кучево-дождевые. Подробнее классификацию облаков см. в Атласе облаков (PDF).
T - Температура воздуха - температура, измеренная на высоте 2 м над землей.
Td - Температура точки росы - температура, при понижении до которой содержащийся в воздухе водяной пар достигнет насыщения.
f - Относительная влажность воздуха - влажноcть воздуха, измеренная на высоте 2 м над землей.
Te - Эффективная температура - температура, которую ощущает одетый по сезону человек в тени. Характеристика душности погоды. При расчете учитывается влияние влажности воздуха и скорости ветра на теплоощущения человека.
Tes - Эффективная температура на солнце - температура, которую ощущает человек, с поправкой на солнечный нагрев. Характеристика знойности погоды. Зависит от высоты солнца над горизонтом, облачности и скорости ветра. Ночью, в пасмурную погоду, а также при ветре 12 м/с и более поправка равна нулю.
P - Атмосферное давление - приведенное к уровню моря атмосферное давление.
Po - Атмосферное давление - измеренное на уровне метеостанции атмосферное давление.
Tmin - Минимальная температура - минимум температуры воздуха на высоте 2 м над землей.
Tmax - Максимальная температура - максимум температуры воздуха на высоте 2 м над землей.
R - Количество осадков - Количество выпавших осадков за период времени, мм. При наведении курсора мыши на число - период времени, за который выпало указанное количество осадков.
R24 - Количество осадков - Количество выпавших осадков за 24 часа, мм.
S - Снежный покров - Высота снежного покрова, см. При наведении курсора мыши на число - состояние снежного покрова и степень покрытия местности в баллах.